This demonstration page uses our WeatherBlox Daily Observations layout. Learn more.

Left ArrowRight Arrow

38.88101, -77.10428

Hourly Observations for April 27, 2021

Temp ( °F °C ) Dew Point ( °F °C ) Humidity (%) Winds ( mph kmh ) Pressure ( in mb ) Visibility ( mi km ) Precip ( " mm )
12:52 am 00:52 Mostly Clear 54 12.2 38 3.3 55 55 SSW 5 7 30.10 1019 10 16 0.00 0.00
1:52 am 01:52 Mostly Clear 53 11.7 39 3.9 59 59 Calm 30.09 1019 10 16 0.00 0.00
2:52 am 02:52 Partly Cloudy 53 11.7 42 5.6 66 66 Calm 30.09 1019 10 16 0.00 0.00
3:52 am 03:52 Partly Cloudy 53 11.7 40 4.4 61 61 Calm 30.09 1019 10 16 0.00 0.00
4:52 am 04:52 Mostly Cloudy 53 11.7 42 5.6 66 66 Calm 30.08 1019 10 16 0.00 0.00
5:52 am 05:52 Partly Cloudy 51 10.6 42 5.6 71 71 SW 3 6 30.06 1018 10 16 0.00 0.00
6:52 am 06:52 Mostly Cloudy 51 10.6 43 6.1 74 74 SW 5 7 30.08 1019 10 16 0.00 0.00
7:52 am 07:52 Mostly Cloudy 55 12.8 43 6.1 64 64 Calm 30.08 1019 10 16 0.00 0.00
8:52 am 08:52 Cloudy 57 13.9 46 7.8 67 67 SSE 5 7 30.08 1019 10 16 0.00 0.00
9:52 am 09:52 Mostly Cloudy 61 16.1 47 8.3 60 60 SSE 7 11 30.06 1018 10 16 0.00 0.00
10:52 am 10:52 Mostly Cloudy 66 18.9 47 8.3 50 50 S 7 11 30.05 1018 10 16 0.00 0.00
11:52 am 11:52 Mostly Cloudy 69 20.6 49 9.4 49 49 S 12 19 30.03 1017 10 16 0.00 0.00
12:52 pm 12:52 Mostly Cloudy 75 23.9 51 10.6 43 43 S 10 17 30.00 1016 10 16 0.00 0.00
1:52 pm 13:52 Partly Cloudy 81 27.2 51 10.6 35 35 S 8 13 29.97 1015 10 16 0.00 0.00
2:52 pm 14:52 Mostly Cloudy 83 28.3 51 10.6 33 33 S 10 17 29.95 1014 10 16 0.00 0.00
3:52 pm 15:52 Partly Cloudy 84 28.9 50 10 31 31 SSW 15 24 29.92 1013 10 16 0.00 0.00
4:52 pm 16:52 Mostly Cloudy 84 28.9 49 9.4 30 30 S 20 31 29.91 1013 10 16 0.00 0.00
5:52 pm 17:52 Mostly Cloudy 80 26.7 53 11.7 39 39 S 15 24 29.90 1013 10 16 0.00 0.00
6:52 pm 18:52 Mostly Cloudy 80 26.7 53 11.7 39 39 S 10 17 29.90 1012 10 16 0.00 0.00
7:52 pm 19:52 Mostly Cloudy 74 23.3 54 12.2 50 50 S 12 19 29.90 1013 10 16 0.00 0.00
8:52 pm 20:52 Mostly Cloudy 71 21.7 54 12.2 55 55 S 12 19 29.90 1013 10 16 0.00 0.00
9:52 pm 21:52 Mostly Cloudy 70 21.1 55 12.8 59 59 S 14 22 29.91 1013 10 16 0.00 0.00
10:52 pm 22:52 Mostly Cloudy 69 20.6 55 12.8 61 61 S 13 20 29.91 1013 10 16 0.00 0.00
11:52 pm 23:52 Mostly Cloudy 68 20 55 12.8 63 63 S 10 17 29.92 1013 10 16 0.00 0.00

Powered by AerisWeather